OPS 4682 DEB, 38443

Orbit data source: Space-Track

OPS 4682 DEB, 38443 is space debris in LEO originally from a launch on Sat, 03 Apr 1965 UTC launched from the Air Force Western Test Range (AFWTR). Debris objects in space refer to the collection of defunct objects orbiting the Earth. Examples of debris include non-operational satellites, rocket bodies, and fragments generated from explosions, collisions, or faulty payload assembly.

Loading next visibility...
Identifier
38443, 1965-027EY
Orbit
LEO
Country
Flag of USUS
Related business
Manufacturer
Unknown
Mission
Spacecraft
Bus & Motor
Unknown
Mass
Unknown
Launch date (UTC)
1965-04-03 (61 years ago)
Launch vehicle
Unknown
Launch site
Air Force Western Test Range (AFWTR)
Object type
Payload
Rocket body
Debris
Shape & HBR
Unknown shape, 0.1 m
Radar Cross Section
Medium (>0.1 m² and <1 m²)

Expand to show TLE details & history
Last TLE update: 23 hours ago

TLE from 23 hours ago
0 OPS 4682 DEB
1 38443U 65027EY  26262.58119684  .00001024  00000-0  33287-2 0  9994
2 38443  90.2410   5.1568 0026490 354.9167   5.1682 13.00944248564092
Epoch: 2026-09-19T13:56Z
TLE epoch observation values (Epoch: 2026-09-19T13:56:55.406Z)
Latitude
-0.00013°
Longitude
157.43826°
Altitude
1,241.124 km
Speed
7.244 km/s
True Right ascension
00h 20m 37s
True Declination
0° 00' 00"
Sunlit
Object was in full shadow at epoch
Visualization orbit readout
Latitude
Unknown
Longitude
Unknown
Altitude
Unknown
Speed
Unknown
Apparent Right ascension
Unknown
Apparent Declination
Unknown
Sunlit
N/A
Visualization observer readout
Local Sidereal Time
06:09:37
Azimuth
Unknown
Elevation
Unknown
Doppler factor
Unknown
Orbital elements
Apogee altitude
1,275.736 km
Perigee altitude
1,235.293 km
Semi-major axis
7,633.652 km
Eccentricity
0.00265
Inclination
90.241°
RAAN
5.1568°
Arg. of periapsis
354.9167°
True anomaly
5.19563°
Mean anomaly
5.1682°
Eccentric anomaly
5.18191°
Mean motion
3.2542 °/min
Orbital period
110.63 mins
BSTAR
0.0033287
Loading maneuver chart data...
Computing Atmospheric mass density...
Loading historical data...
Loading historical data...
Loading historical data...
Loading historical data...
Loading historical data...
Loading historical data...
Loading historical data...

Documentation

Showing up to 5 results
|